TimeCST,TemperatureF,Dew PointF,Humidity,Sea Level PressureIn,VisibilityMPH,Wind Direction,Wind SpeedMPH,Gust SpeedMPH,PrecipitationIn,Events,Conditions,WindDirDegrees,DateUTC
12:15 AM,8.6,5.0,85,29.84,10.0,West,3.5,-,N/A,,Clear,280,2013-12-21 06:15:00
12:35 AM,8.6,5.0,85,29.84,10.0,WSW,3.5,-,N/A,,Clear,240,2013-12-21 06:35:00
12:55 AM,8.6,5.0,85,29.84,10.0,SSW,3.5,-,N/A,,Clear,210,2013-12-21 06:55:00
1:15 AM,6.8,3.2,85,29.84,10.0,West,4.6,-,N/A,,Clear,270,2013-12-21 07:15:00
1:35 AM,6.8,3.2,85,29.83,10.0,WNW,3.5,-,N/A,,Clear,290,2013-12-21 07:35:00
1:55 AM,6.8,3.2,85,29.86,10.0,South,4.6,-,N/A,,Clear,190,2013-12-21 07:55:00
2:15 AM,6.8,3.2,85,29.86,9.0,SSW,4.6,-,N/A,,Clear,200,2013-12-21 08:15:00
2:35 AM,6.8,3.2,85,29.85,10.0,WSW,3.5,-,N/A,,Mostly Cloudy,250,2013-12-21 08:35:00
2:55 AM,8.6,5.0,85,29.84,9.0,NW,4.6,-,N/A,,Overcast,310,2013-12-21 08:55:00
3:15 AM,10.4,6.8,85,29.85,10.0,NW,4.6,-,N/A,,Overcast,310,2013-12-21 09:15:00
3:35 AM,10.4,6.8,85,29.82,9.0,North,3.5,-,N/A,,Overcast,360,2013-12-21 09:35:00
3:55 AM,10.4,6.8,85,29.81,10.0,North,4.6,-,N/A,,Overcast,360,2013-12-21 09:55:00
4:15 AM,10.4,6.8,85,29.80,10.0,North,4.6,-,N/A,,Overcast,10,2013-12-21 10:15:00
4:35 AM,10.4,6.8,85,29.80,10.0,North,4.6,-,N/A,,Overcast,360,2013-12-21 10:35:00
4:55 AM,10.4,6.8,85,29.80,10.0,North,4.6,-,N/A,,Scattered Clouds,10,2013-12-21 10:55:00
5:15 AM,8.6,5.0,85,29.81,10.0,North,4.6,-,N/A,,Scattered Clouds,10,2013-12-21 11:15:00
5:35 AM,8.6,5.0,85,29.82,10.0,North,4.6,-,N/A,,Partly Cloudy,350,2013-12-21 11:35:00
5:55 AM,10.4,6.8,85,29.83,10.0,Calm,Calm,-,N/A,,Clear,0,2013-12-21 11:55:00
6:15 AM,8.6,5.0,85,29.83,10.0,North,3.5,-,N/A,,Clear,350,2013-12-21 12:15:00
6:35 AM,8.6,5.0,85,29.82,10.0,North,3.5,-,N/A,,Mostly Cloudy,360,2013-12-21 12:35:00
6:55 AM,8.6,5.0,85,29.82,10.0,North,4.6,-,N/A,,Overcast,360,2013-12-21 12:55:00
7:15 AM,10.4,6.8,85,29.81,10.0,Calm,Calm,-,N/A,,Overcast,0,2013-12-21 13:15:00
7:35 AM,10.4,6.8,85,29.84,9.0,Calm,Calm,-,N/A,,Overcast,0,2013-12-21 13:35:00
7:55 AM,10.4,6.8,85,29.85,8.0,Calm,Calm,-,N/A,,Overcast,0,2013-12-21 13:55:00
8:15 AM,12.2,8.6,85,29.87,8.0,NW,4.6,-,N/A,,Overcast,310,2013-12-21 14:15:00
8:35 AM,12.2,8.6,85,29.88,9.0,Calm,Calm,-,N/A,,Overcast,0,2013-12-21 14:35:00
8:55 AM,12.2,8.6,85,29.86,9.0,North,5.8,-,N/A,,Overcast,350,2013-12-21 14:55:00
9:15 AM,14.0,10.4,86,29.86,8.0,NNE,5.8,-,N/A,,Overcast,30,2013-12-21 15:15:00
9:35 AM,14.0,12.2,93,29.86,6.0,North,6.9,-,N/A,,Overcast,360,2013-12-21 15:35:00
9:55 AM,15.8,12.2,86,29.88,6.0,NNE,6.9,-,N/A,,Overcast,20,2013-12-21 15:55:00
10:15 AM,15.8,12.2,86,29.87,7.0,NNE,8.1,-,N/A,,Overcast,30,2013-12-21 16:15:00
10:35 AM,15.8,14.0,93,29.87,6.0,North,5.8,-,N/A,,Overcast,10,2013-12-21 16:35:00
10:55 AM,17.6,14.0,86,29.86,4.0,NNE,8.1,-,N/A,,Overcast,30,2013-12-21 16:55:00
11:15 AM,17.6,15.8,93,29.86,5.0,NNE,9.2,-,N/A,,Overcast,30,2013-12-21 17:15:00
11:35 AM,17.6,15.8,93,29.87,5.0,NNE,5.8,-,N/A,,Overcast,20,2013-12-21 17:35:00
11:55 AM,19.4,15.8,86,29.88,6.0,NE,4.6,-,N/A,,Overcast,40,2013-12-21 17:55:00
12:15 PM,19.4,15.8,86,29.87,6.0,NNE,8.1,-,N/A,,Overcast,30,2013-12-21 18:15:00
12:35 PM,19.4,15.8,86,29.85,7.0,NNE,8.1,-,N/A,,Overcast,20,2013-12-21 18:35:00
12:55 PM,19.4,17.6,93,29.85,8.0,NE,6.9,-,N/A,,Overcast,40,2013-12-21 18:55:00
1:15 PM,21.2,17.6,86,29.85,8.0,NNE,8.1,-,N/A,,Overcast,30,2013-12-21 19:15:00
1:35 PM,21.2,17.6,86,29.85,7.0,NNE,10.4,-,N/A,,Overcast,20,2013-12-21 19:35:00
1:55 PM,21.2,17.6,86,29.84,7.0,NNE,11.5,-,N/A,,Overcast,30,2013-12-21 19:55:00
2:15 PM,21.2,17.6,86,29.82,6.0,NE,11.5,-,N/A,,Overcast,40,2013-12-21 20:15:00
2:35 PM,21.2,17.6,86,29.82,6.0,NNE,12.7,-,N/A,,Overcast,20,2013-12-21 20:35:00
2:55 PM,21.2,17.6,86,29.83,5.0,NNE,12.7,-,N/A,,Overcast,30,2013-12-21 20:55:00
3:15 PM,21.2,17.6,86,29.84,4.0,NNE,10.4,-,N/A,,Overcast,20,2013-12-21 21:15:00
3:35 PM,21.2,17.6,86,29.84,4.0,NNE,13.8,-,N/A,,Overcast,20,2013-12-21 21:35:00
3:55 PM,21.2,17.6,86,29.85,4.0,NNE,13.8,-,N/A,Snow,Light Snow,20,2013-12-21 21:55:00
4:15 PM,21.2,17.6,86,29.86,4.0,NNE,12.7,-,N/A,,Overcast,20,2013-12-21 22:15:00
4:35 PM,21.2,17.6,86,29.84,4.0,NNE,17.3,-,N/A,Snow,Light Snow,20,2013-12-21 22:35:00
4:55 PM,21.2,17.6,86,29.85,4.0,NNE,12.7,19.6,N/A,,Overcast,20,2013-12-21 22:55:00
5:15 PM,21.2,17.6,86,29.84,6.0,NNE,16.1,-,N/A,,Overcast,20,2013-12-21 23:15:00
5:35 PM,19.4,17.6,93,29.86,7.0,North,11.5,19.6,N/A,,Overcast,10,2013-12-21 23:35:00
5:55 PM,19.4,17.6,93,29.86,6.0,NNE,16.1,-,N/A,,Overcast,20,2013-12-21 23:55:00
6:15 PM,19.4,17.6,93,29.86,6.0,North,11.5,20.7,N/A,,Overcast,10,2013-12-22 00:15:00
6:35 PM,19.4,17.6,93,29.86,6.0,NNE,15.0,-,N/A,,Overcast,20,2013-12-22 00:35:00
6:55 PM,19.4,17.6,93,29.87,6.0,North,12.7,20.7,N/A,,Overcast,10,2013-12-22 00:55:00
7:15 PM,19.4,15.8,86,29.87,6.0,NNE,16.1,-,N/A,,Overcast,20,2013-12-22 01:15:00
7:35 PM,19.4,15.8,86,29.85,7.0,NNE,17.3,-,N/A,,Overcast,20,2013-12-22 01:35:00
7:55 PM,19.4,15.8,86,29.84,7.0,North,13.8,24.2,N/A,,Overcast,10,2013-12-22 01:55:00
8:15 PM,19.4,15.8,86,29.83,7.0,NNE,17.3,25.3,N/A,,Overcast,20,2013-12-22 02:15:00
8:35 PM,19.4,15.8,86,29.83,7.0,NNE,15.0,21.9,N/A,,Overcast,20,2013-12-22 02:35:00
8:55 PM,19.4,15.8,86,29.83,7.0,North,13.8,-,N/A,,Overcast,10,2013-12-22 02:55:00
9:15 PM,19.4,15.8,86,29.83,7.0,North,12.7,19.6,N/A,,Overcast,10,2013-12-22 03:15:00
9:35 PM,19.4,15.8,86,29.84,7.0,North,13.8,19.6,N/A,,Overcast,10,2013-12-22 03:35:00
9:55 PM,19.4,15.8,86,29.84,7.0,North,13.8,-,N/A,,Overcast,10,2013-12-22 03:55:00
10:15 PM,19.4,15.8,86,29.84,8.0,North,15.0,-,N/A,,Overcast,10,2013-12-22 04:15:00
10:35 PM,19.4,15.8,86,29.83,8.0,North,15.0,-,N/A,,Overcast,10,2013-12-22 04:35:00
10:55 PM,19.4,15.8,86,29.84,8.0,North,12.7,18.4,N/A,,Overcast,10,2013-12-22 04:55:00
11:15 PM,19.4,15.8,86,29.83,8.0,North,11.5,18.4,N/A,,Overcast,10,2013-12-22 05:15:00
11:35 PM,19.4,15.8,86,29.84,8.0,North,13.8,20.7,N/A,,Overcast,10,2013-12-22 05:35:00
11:55 PM,19.4,15.8,86,29.84,8.0,North,13.8,25.3,N/A,,Overcast,10,2013-12-22 05:55:00